Theta_e
345 345 344 345 345 345 346 347 348 349 348 348 348 348 348 348 347 346 346 346 345 341 341 342 343 343 346 344 345 345 345 345 344 344 344 343 343 342 342 341 341 340 340 339 338 337 338 338 339 341 342 340 341 333 331 330 330 332 332 334 335 332
344 344 344 344 345 345 345 345 343 344 345 346 347 347 346 344 347 343 346 343 341 343 339 339 341 346 342 345 344 345 345 344 344 343 342 341 342 341 341 341 340 339 339 338 336 326 328 334 338 341 341 340 331 331 330 331 330 331 333 331 334 336
342 342 342 344 344 344 342 341 340 341 344 346 346 345 343 343 339 339 340 340 340 338 338 340 342 343 344 345 345 345 345 344 343 342 342 341 341 341 341 340 340 339 337 335 326 324 324 324 325 337 339 333 330 331 330 330 330 331 331 332 331 339
341 341 342 343 343 342 341 340 340 340 340 340 340 340 338 338 337 337 336 337 337 338 336 336 345 345 347 342 342 344 344 343 342 342 342 341 342 340 340 340 339 337 334 331 326 325 326 325 324 323 324 327 330 331 330 330 330 330 330 336 333 341
341 342 342 342 342 341 341 341 341 339 337 337 337 336 336 336 336 336 336 336 336 337 335 336 337 338 337 336 335 336 337 336 336 335 337 329 330 332 330 327 328 329 327 328 327 327 327 326 325 325 324 325 328 330 329 330 330 330 331 331 333 341
340 340 341 341 340 341 341 340 339 337 335 335 336 336 336 335 335 335 336 337 337 334 334 334 333 333 334 334 334 333 331 331 332 332 333 329 329 328 328 328 328 329 327 328 328 327 326 326 325 325 326 328 330 330 329 330 331 331 332 332 336 341
339 339 340 341 341 340 339 338 338 336 335 335 336 335 335 335 335 336 336 337 334 332 331 331 331 330 331 332 332 331 330 330 330 329 330 330 329 327 327 327 327 327 326 328 329 328 327 326 324 326 327 329 330 330 330 331 332 332 331 332 338 341
338 338 338 340 339 338 337 336 337 340 335 340 336 335 335 335 335 335 335 335 336 332 331 330 330 330 330 330 330 331 331 329 330 330 330 330 329 328 327 327 327 324 328 328 329 327 328 328 325 324 327 328 330 330 330 331 331 332 332 332 335 341
337 337 338 339 337 337 336 335 338 335 336 341 333 334 335 335 334 335 334 335 337 331 329 330 329 330 329 330 330 331 328 328 330 331 328 328 330 329 329 327 327 326 325 326 326 327 328 327 325 324 326 328 329 329 330 330 331 331 330 330 329 336
336 337 337 337 336 336 336 335 335 334 336 338 332 334 335 333 333 333 332 333 334 331 330 329 330 329 330 330 331 331 331 330 331 330 330 330 329 329 327 325 325 325 325 324 326 328 326 325 326 325 325 328 328 329 329 330 329 329 329 329 328 331
337 338 336 335 335 335 335 333 333 333 335 332 333 336 334 334 332 331 331 331 332 332 329 329 329 329 330 330 330 330 331 330 329 329 330 329 329 328 327 328 327 325 325 325 326 327 326 324 323 326 326 328 328 328 328 329 330 329 329 329 328 328
336 336 335 335 336 335 334 333 333 333 333 332 334 334 333 332 332 329 330 330 330 331 332 330 330 329 329 328 329 329 329 328 328 329 329 329 329 327 328 329 330 329 329 329 328 325 324 324 323 325 325 327 326 328 328 328 329 329 329 329 330 329
336 335 333 334 335 335 334 334 332 333 333 334 333 333 333 332 329 329 329 329 328 330 331 330 329 329 330 326 327 328 327 326 326 329 327 328 329 327 329 329 328 328 328 327 326 325 326 324 324 323 325 326 327 329 329 328 328 329 330 331 330 330
335 334 334 333 333 333 333 333 333 333 336 334 331 331 332 330 330 329 328 328 327 329 328 328 329 328 326 325 326 326 326 325 325 326 328 329 327 327 328 328 327 328 330 325 324 321 321 324 323 324 324 326 326 326 326 327 328 328 329 331 330 329
336 335 335 333 333 333 333 333 333 334 334 333 332 330 329 329 329 328 328 327 328 329 327 328 329 327 325 324 324 324 323 325 327 326 329 328 328 327 327 327 327 326 325 327 327 326 322 322 323 323 325 326 328 329 329 328 328 328 329 329 329 329
334 334 333 332 332 333 333 332 333 337 334 332 331 330 329 330 329 328 328 327 328 330 327 328 329 327 325 324 324 324 324 326 327 327 327 326 327 326 325 326 325 325 326 327 327 325 324 322 322 323 325 326 327 329 329 330 330 330 330 329 330 329
332 333 331 331 331 331 331 331 333 336 334 332 330 329 329 329 329 329 327 327 327 330 327 328 329 328 326 325 324 325 325 328 328 327 326 322 322 324 325 326 324 324 326 327 327 326 324 321 322 324 325 326 326 328 329 331 330 327 329 327 326 328
332 332 330 330 330 330 331 332 332 333 334 331 328 328 329 331 329 328 328 327 328 330 329 328 328 328 325 325 324 325 327 329 328 326 323 322 322 323 324 326 324 326 326 324 323 323 321 321 324 324 324 325 326 328 329 330 330 330 327 328 329 328
330 329 328 328 329 329 330 330 330 332 332 330 329 328 330 330 330 329 329 328 329 330 330 327 329 329 327 327 326 327 329 327 327 324 325 324 324 325 325 323 325 325 325 321 322 321 322 322 324 324 325 326 326 327 328 329 329 329 330 332 332 332
328 329 328 327 328 329 331 330 330 330 331 330 328 330 330 329 329 328 329 329 328 327 329 329 329 328 328 327 326 326 327 328 326 326 324 324 323 323 324 324 325 326 324 324 324 322 320 323 323 324 325 325 327 327 327 328 328 328 328 328 329 329
327 328 328 328 328 330 331 330 327 328 328 329 329 328 329 327 327 325 327 329 328 328 328 330 329 328 328 331 327 326 326 325 325 326 325 323 323 323 324 325 325 325 323 320 322 324 321 320 321 319 321 321 322 325 327 326 326 327 328 328 328 328
327 328 328 329 330 331 331 330 329 329 324 326 328 325 323 323 324 326 326 327 327 326 327 329 329 328 329 327 326 325 326 325 324 323 324 323 321 327 325 325 324 322 321 320 321 324 322 317 315 315 316 316 319 322 324 323 324 326 328 328 327 328
328 328 328 329 329 329 327 329 327 322 325 321 324 325 325 324 326 325 324 324 325 325 326 326 328 329 327 326 326 325 325 323 324 327 324 323 323 322 323 324 322 323 321 322 322 323 320 317 313 314 313 315 313 314 318 320 323 325 327 327 328 328
328 328 327 329 330 327 329 325 324 325 324 322 321 325 323 323 323 324 323 323 323 324 325 326 327 328 326 325 325 324 324 323 324 325 323 322 321 321 322 322 321 320 320 318 317 319 322 320 316 318 311 308 310 311 311 314 317 321 326 327 327 326
327 327 327 329 327 326 325 322 322 322 323 323 323 322 321 319 320 323 321 321 321 322 324 325 324 325 326 323 321 322 323 322 323 322 322 322 321 322 322 321 321 320 316 318 315 317 321 322 319 317 315 311 307 305 305 313 317 317 323 324 325 327
326 325 326 326 325 325 324 321 320 320 319 317 317 319 318 319 318 320 319 318 319 321 323 321 320 322 325 323 321 320 320 322 321 324 321 321 321 322 320 321 322 321 316 316 319 315 317 319 319 321 316 312 310 308 310 314 313 311 320 323 325 326
326 324 324 324 324 323 320 321 321 320 319 319 318 315 317 319 319 316 318 317 318 319 321 321 319 319 319 321 321 319 319 320 320 320 323 321 321 323 323 323 322 321 321 319 317 314 317 316 316 318 319 317 318 315 317 312 307 314 313 318 322 323
324 324 323 324 322 321 320 319 319 319 319 318 319 317 318 317 316 318 317 317 318 317 318 318 318 317 318 321 321 319 318 318 320 320 323 320 321 321 323 323 323 320 320 321 319 319 316 315 316 316 316 317 318 317 315 312 315 314 314 313 316 322
324 324 323 323 322 318 320 319 319 318 317 316 318 318 319 319 317 318 316 315 317 316 317 317 317 317 316 320 323 319 317 317 317 319 321 321 319 320 321 321 320 319 319 316 317 318 319 316 314 315 315 314 315 314 315 315 313 313 314 315 315 317
324 323 323 321 321 318 318 319 317 316 316 316 318 317 318 316 316 315 315 313 314 315 316 317 316 315 315 315 317 319 318 317 317 319 321 318 317 318 317 317 317 318 317 318 317 319 319 315 314 314 315 314 312 312 313 312 311 314 315 316 314 315
323 323 322 321 319 317 318 319 318 317 317 317 317 317 315 313 314 314 314 312 313 313 315 314 314 314 314 316 317 319 317 317 319 320 319 318 317 318 316 316 316 317 317 318 316 317 316 314 314 314 313 314 314 316 312 309 312 311 312 314 315 315
323 322 321 321 320 319 319 318 319 319 318 318 317 316 315 314 314 314 313 312 312 313 312 314 312 313 313 314 317 317 317 316 317 315 315 314 314 315 314 314 314 315 315 314 316 318 315 314 312 312 313 313 313 313 310 313 314 313 315 315 316 315
322 321 320 320 320 320 320 319 318 318 318 318 317 316 315 314 313 314 313 312 312 312 311 313 312 313 311 312 315 315 315 315 313 313 313 313 312 312 312 312 312 311 310 311 312 314 314 312 313 314 313 312 313 314 313 314 315 314 315 317 317 315
321 320 319 319 320 321 320 319 318 317 317 317 316 316 316 316 315 315 314 313 313 313 313 313 312 312 311 312 312 313 313 312 311 312 312 310 310 311 310 310 309 309 309 308 309 309 309 307 307 308 310 312 311 313 313 316 315 316 316 316 315 314
320 319 319 319 320 322 321 318 317 317 317 316 315 315 315 317 317 316 314 314 313 313 313 313 313 313 313 312 311 311 312 312 311 310 310 310 311 309 309 311 310 310 310 309 309 309 307 308 309 307 308 310 311 312 315 315 316 316 317 316 316 314
320 318 319 319 320 322 320 318 317 317 316 316 317 316 316 317 318 317 314 314 313 313 313 311 311 312 312 311 311 312 311 310 309 309 309 309 309 308 308 309 308 308 309 311 309 308 307 307 307 306 307 307 311 311 314 316 316 316 316 316 315 313
318 318 318 318 319 320 319 317 317 317 317 316 316 315 316 317 317 316 315 313 314 313 312 312 313 311 310 309 310 311 310 309 308 308 308 308 307 307 307 308 308 307 307 306 308 306 305 307 305 306 306 306 307 307 309 314 316 316 315 314 314 312
Wind_Speed
7 8 6 6 6 6 10 14 13 15 15 15 14 15 13 14 12 11 10 10 9 5 5 5 6 5 9 5 8 10 9 9 8 9 10 10 9 9 8 8 6 6 6 7 7 6 7 8 8 6 7 5 7 6 6 5 5 5 4 4 4 5
7 7 7 6 5 5 7 9 6 6 6 9 11 12 9 7 9 5 11 8 5 5 5 4 4 7 4 5 7 10 9 8 8 8 8 9 9 9 9 8 7 6 5 6 6 5 5 7 9 8 8 6 6 5 6 6 6 5 4 3 5 6
7 7 7 6 5 6 7 5 5 5 6 8 7 7 5 7 5 6 5 5 5 5 4 4 4 5 4 8 7 9 9 9 8 7 7 8 9 9 8 8 8 7 6 6 5 5 5 5 4 5 4 5 5 5 5 6 6 5 5 4 4 10
8 7 7 5 5 5 5 5 5 4 5 5 5 5 5 5 5 5 5 5 4 4 3 3 6 10 8 4 5 8 9 9 8 7 8 5 7 9 9 10 9 7 5 4 5 5 5 3 3 1 1 2 6 6 6 6 5 5 5 4 3 11
7 7 7 6 6 5 5 5 4 5 5 5 5 5 5 5 5 5 5 5 5 4 4 4 4 4 4 4 4 4 3 4 4 4 6 3 3 4 5 4 4 4 4 4 5 4 4 4 3 3 2 2 4 6 5 4 4 5 4 3 3 11
7 7 6 5 5 7 7 5 5 5 5 4 5 5 5 5 5 5 4 5 5 6 5 4 4 3 3 4 4 4 3 3 4 4 3 3 4 4 4 4 4 4 3 4 4 3 3 3 3 3 4 3 5 6 6 5 5 5 5 5 4 11
7 6 6 6 5 5 4 4 4 5 5 5 5 5 5 5 4 5 5 5 6 5 5 4 4 4 4 3 3 3 3 3 3 3 2 4 3 3 4 4 4 4 3 4 4 3 3 3 3 3 4 4 4 5 6 6 5 5 4 4 4 11
7 6 5 8 5 4 4 5 5 6 5 6 6 5 5 4 5 5 4 4 4 5 5 4 4 4 4 2 2 2 3 3 2 2 2 3 4 3 3 3 3 3 4 3 3 3 3 3 3 3 4 4 5 5 5 5 5 4 4 4 3 7
7 8 6 5 5 4 4 4 4 5 5 6 4 4 5 5 5 4 4 5 5 5 4 4 4 4 4 3 3 2 2 2 2 2 2 3 3 4 3 2 3 4 3 3 3 3 2 3 3 3 4 5 5 5 5 5 4 4 3 3 2 4
7 8 6 6 4 5 4 4 4 4 4 5 4 5 5 4 4 4 4 4 4 5 5 5 4 3 4 4 3 2 2 2 2 2 2 3 2 3 4 3 2 2 3 2 3 2 2 3 3 3 2 4 4 5 5 5 4 4 3 3 3 1
7 8 7 7 6 5 4 4 4 3 4 5 5 5 5 4 4 4 4 4 4 4 4 4 4 4 4 4 3 2 3 2 2 2 2 3 2 4 3 3 3 2 2 2 2 1 2 3 3 2 2 3 3 4 4 4 4 4 4 3 2 2
8 8 7 6 7 6 5 5 5 4 4 5 5 4 5 4 4 3 3 4 4 4 4 4 5 4 4 4 3 3 3 3 2 1 2 3 3 3 4 4 3 2 3 2 2 2 1 3 3 2 2 3 2 2 3 4 4 3 3 3 3 2
8 7 7 7 7 6 5 5 5 5 4 4 4 4 5 4 4 3 3 4 4 4 3 4 4 4 5 4 4 3 2 2 2 2 2 3 4 3 3 4 3 2 3 3 3 2 2 3 3 2 1 2 3 3 2 3 3 3 3 3 3 2
7 8 8 7 6 6 5 5 4 4 4 4 4 4 4 4 4 3 3 3 4 4 4 3 5 4 4 4 3 3 3 3 2 2 2 3 3 3 3 3 2 2 3 3 3 2 2 4 3 2 1 1 1 2 1 2 2 2 3 4 3 3
7 8 8 6 7 6 5 5 5 5 4 4 4 4 4 4 4 3 4 4 4 4 3 4 4 5 4 4 4 4 3 3 3 2 3 2 4 2 3 3 2 4 3 3 3 2 2 3 2 1 1 1 2 2 3 2 2 2 3 4 3 3
7 8 7 8 6 6 6 5 4 4 3 3 4 4 4 4 4 4 4 4 4 4 4 4 4 4 4 3 4 4 3 3 3 3 3 2 3 3 3 3 1 2 4 4 4 3 2 3 2 1 2 3 3 3 3 3 2 3 3 3 4 3
7 8 7 6 5 4 5 5 4 4 4 3 4 4 4 4 4 4 4 4 3 3 3 3 3 3 4 4 3 3 2 3 3 3 3 2 2 2 4 3 1 2 2 4 4 4 2 2 3 3 4 5 5 4 4 4 4 3 2 3 3 2
7 7 6 7 6 5 5 4 4 4 4 4 3 3 4 4 4 4 4 4 4 3 3 3 3 3 3 3 3 3 3 4 3 4 3 2 2 2 3 3 3 2 3 4 3 4 3 3 3 4 4 5 5 4 4 5 4 5 4 4 5 3
8 6 5 5 4 4 3 3 2 4 4 3 2 3 4 4 4 4 3 4 4 4 3 4 3 3 4 3 3 3 4 3 3 4 3 2 2 2 2 2 4 2 2 2 4 2 3 4 4 4 5 6 6 6 5 5 5 4 4 4 4 2
7 6 5 4 5 4 3 4 4 2 3 2 3 4 3 3 4 4 3 3 4 3 3 3 3 3 3 4 4 4 4 4 3 4 4 3 2 2 4 4 4 4 4 4 3 1 3 5 5 6 7 7 6 5 7 6 6 6 5 5 1 1
7 7 6 6 6 6 5 5 2 4 3 3 3 2 3 3 3 2 3 3 4 4 4 3 3 4 4 4 4 4 4 3 3 4 4 4 4 3 4 4 4 3 4 3 2 1 1 2 6 5 5 6 6 6 7 7 7 7 5 5 1 2
8 8 7 7 6 6 5 4 4 4 2 3 3 4 2 2 2 2 3 3 3 4 4 5 4 3 4 4 4 4 4 4 4 3 3 3 3 3 3 4 4 2 1 3 2 2 3 2 2 3 5 3 5 5 5 7 7 6 6 5 3 2
7 8 6 6 5 5 3 4 4 3 5 3 1 2 3 2 3 3 2 3 3 3 4 3 4 4 5 4 5 5 4 4 3 4 4 3 4 4 4 5 4 4 3 2 2 1 2 0 2 2 2 5 1 3 3 5 6 7 6 5 3 3
6 6 6 6 5 3 4 3 4 6 4 4 3 3 3 3 2 3 2 2 2 3 3 4 3 3 3 4 5 5 5 5 5 4 5 5 4 5 4 4 4 3 4 4 1 0 0 1 2 6 2 1 2 2 3 4 4 3 4 5 4 4
6 7 6 6 6 5 6 5 6 6 6 6 5 4 5 2 2 2 3 3 3 3 4 4 4 4 4 4 3 4 4 4 4 3 4 5 4 5 4 4 5 4 3 5 3 1 1 1 3 1 5 4 3 1 1 2 4 3 3 4 5 3
4 5 7 6 6 6 6 7 7 7 6 5 5 6 6 5 3 4 4 1 2 3 3 3 2 3 4 4 4 3 3 3 3 3 2 3 3 3 3 3 4 5 3 1 4 3 1 0 1 0 2 2 3 2 6 4 2 1 2 4 3 4
5 4 4 5 4 5 6 6 7 7 6 7 7 3 3 4 5 3 3 3 3 2 2 4 2 2 3 3 4 3 3 2 2 3 2 3 3 4 4 3 3 4 4 3 3 3 4 2 2 1 2 1 1 2 6 6 2 3 4 2 4 4
4 4 3 4 4 4 6 5 6 6 6 7 7 6 5 4 3 4 5 4 4 3 3 2 2 1 3 3 4 4 3 3 3 2 3 4 4 3 4 2 3 3 3 4 4 5 4 3 5 2 2 3 4 5 3 2 4 5 5 5 3 5
6 5 4 4 4 4 5 6 6 7 6 4 5 6 4 3 5 4 6 3 4 4 4 3 2 3 3 3 3 4 3 3 3 3 2 3 2 3 4 5 4 4 4 3 3 3 4 5 3 4 5 3 5 4 5 5 4 3 4 5 6 3
6 4 4 3 4 4 4 6 7 6 7 5 4 4 4 5 4 4 6 4 4 4 4 4 3 3 3 3 3 3 3 3 4 3 3 3 3 3 3 3 3 4 4 4 2 4 4 3 3 2 3 5 4 3 4 4 3 6 5 4 6 6
6 5 4 4 5 4 4 5 7 7 8 7 5 6 6 4 4 4 6 4 4 3 4 4 3 3 3 3 4 3 4 3 3 3 3 3 3 3 3 3 3 4 4 5 5 4 3 2 1 2 3 5 6 7 6 4 6 4 5 5 6 7
5 5 5 4 5 5 5 5 6 8 8 8 8 6 7 6 5 5 5 5 3 5 4 4 3 3 3 3 4 4 4 4 4 3 3 3 3 3 3 3 3 4 3 3 4 4 3 3 2 2 1 3 4 4 2 5 6 6 8 8 8 8
6 5 5 4 4 4 4 5 7 8 7 7 8 7 7 6 4 6 6 5 5 6 4 5 3 4 3 3 4 5 4 5 3 3 3 3 3 3 3 3 3 3 3 4 4 5 5 3 4 4 3 1 4 3 3 4 5 6 6 7 9 9
6 5 5 5 5 5 4 4 6 7 7 7 7 7 6 7 5 6 6 6 6 6 6 6 4 4 2 3 3 3 4 4 3 3 3 3 3 2 3 4 3 4 4 3 4 5 5 3 3 3 3 5 2 5 5 5 6 8 9 9 8 9
7 6 6 5 5 5 4 5 4 5 7 6 7 6 5 6 6 6 4 5 4 5 6 4 6 4 3 4 4 4 4 4 4 3 3 3 3 3 3 3 3 4 4 4 5 6 4 5 4 3 2 4 4 5 5 5 7 7 7 8 9 9
7 6 6 6 5 5 5 5 6 6 6 7 6 6 5 4 5 6 5 6 5 4 5 4 3 4 2 4 5 5 4 4 3 3 3 4 3 3 3 5 4 4 4 2 6 6 4 5 5 4 4 3 4 4 4 6 6 7 7 7 7 7
6 5 6 6 6 5 6 6 5 5 5 6 7 7 7 5 5 4 5 5 6 5 4 4 4 3 4 3 4 5 5 4 4 4 4 3 3 3 3 4 4 4 5 3 5 4 3 6 3 4 4 3 5 5 4 5 6 7 6 5 5 5
Wind_Direction
133 129 125 124 122 126 138 132 132 135 134 130 130 129 127 129 130 131 127 119 106 95 95 104 111 116 118 116 120 117 113 115 115 112 107 110 107 106 105 94 80 62 31 25 30 29 25 30 32 65 103 89 94 116 125 118 118 122 129 141 148 168
124 121 119 117 117 123 127 127 119 123 128 131 133 128 121 120 120 110 122 113 107 106 106 112 120 125 128 129 121 119 118 112 108 103 106 105 103 98 96 94 88 75 49 35 38 41 36 37 43 94 117 103 97 127 129 129 131 135 139 153 165 172
115 118 116 117 117 119 116 111 109 114 120 129 127 111 104 105 95 106 103 107 106 110 119 121 128 140 132 129 124 124 117 110 107 107 105 100 99 95 92 89 86 74 60 49 42 46 47 47 34 54 87 106 111 126 131 129 135 143 147 168 181 163
125 124 122 117 113 110 115 110 108 107 110 107 102 100 100 106 103 104 105 102 104 105 96 116 155 137 121 105 121 121 116 115 112 114 91 74 77 84 78 80 81 71 57 52 56 54 56 52 50 34 77 130 123 134 136 142 143 143 153 174 196 166
129 132 126 121 122 118 118 115 113 111 109 107 101 98 101 101 105 105 104 104 103 93 86 76 68 70 83 97 86 79 69 75 80 73 80 80 80 76 76 73 65 65 57 57 53 43 59 54 42 44 64 93 106 126 119 113 121 136 159 179 194 164
129 137 131 127 129 132 127 131 128 120 109 102 106 107 106 106 106 104 108 108 96 97 96 94 88 87 84 89 86 89 93 90 80 83 94 98 94 97 84 80 78 70 60 64 59 42 45 69 61 57 69 79 114 126 128 132 139 154 170 172 190 167
137 135 133 130 129 127 133 131 125 123 119 114 115 114 111 107 109 115 114 118 110 106 103 104 107 104 101 97 103 106 104 86 91 89 99 105 92 87 96 90 79 74 63 63 57 45 37 43 50 84 79 90 106 125 136 144 150 155 160 166 182 166
141 137 132 147 128 130 127 134 144 136 115 133 125 119 101 115 121 119 122 115 116 118 121 119 120 115 114 100 109 99 96 96 105 114 97 112 104 75 71 79 88 69 65 55 69 55 53 44 51 73 105 105 116 128 141 149 149 148 154 160 167 164
144 144 144 135 132 131 135 139 126 121 138 139 121 124 126 126 124 124 125 126 126 118 113 124 132 125 104 93 82 80 92 106 111 138 116 80 102 110 85 88 90 83 71 69 70 74 76 74 79 86 115 124 131 140 146 143 143 142 114 96 98 156
152 151 142 142 136 144 148 140 124 138 147 132 126 128 130 130 133 133 138 135 122 127 137 138 129 114 120 106 101 85 103 150 159 170 135 112 107 104 111 67 63 68 63 69 78 79 91 89 88 92 100 123 139 149 147 143 138 134 132 134 133 50
157 154 149 147 144 139 145 136 135 151 132 138 139 134 137 134 138 149 147 129 115 125 127 125 127 125 114 128 139 147 164 167 164 186 156 124 124 113 110 99 99 106 98 90 66 21 81 89 74 77 91 100 120 130 138 136 141 145 148 158 111 60
163 155 147 134 143 149 157 150 151 156 148 153 146 140 130 141 150 152 138 121 121 124 127 127 134 131 134 137 146 161 165 169 180 201 141 123 103 87 98 101 100 102 103 96 73 41 38 83 82 70 94 103 104 132 152 159 146 140 144 129 109 69
149 136 133 147 156 163 154 149 157 165 157 158 149 144 133 137 139 142 132 116 118 121 123 133 134 137 144 151 153 157 172 185 177 168 114 103 103 92 84 88 88 99 84 72 73 41 39 50 62 44 62 106 132 155 162 131 129 147 147 124 98 80
126 137 152 156 155 157 155 151 159 159 159 151 149 142 135 123 137 138 127 122 125 116 121 133 138 138 144 146 147 169 173 188 171 144 108 102 96 90 97 98 108 90 86 83 84 53 60 66 35 29 46 54 101 133 105 89 120 144 110 94 105 93
147 151 152 149 159 161 156 157 159 164 157 149 143 136 120 121 129 141 135 132 131 132 137 144 148 146 150 142 158 171 178 175 153 131 114 96 115 107 108 120 154 109 92 80 85 61 61 67 59 39 41 68 89 64 63 80 92 108 98 105 109 85
151 157 161 159 159 158 159 156 150 161 129 137 138 130 129 141 145 149 148 142 148 148 153 158 149 149 150 156 167 166 165 150 138 120 116 114 113 109 113 106 74 135 110 93 102 76 47 87 79 69 32 40 44 59 59 61 68 76 97 107 107 86
160 167 157 150 144 141 143 152 147 138 141 148 156 140 134 136 139 149 152 145 138 140 148 157 151 157 148 149 158 148 163 142 134 127 120 113 105 120 118 117 61 60 92 116 117 121 92 92 91 52 43 44 36 46 59 64 62 64 66 78 75 78
162 159 164 157 153 144 150 148 145 143 150 163 162 129 134 141 148 155 152 139 139 146 157 153 148 159 147 152 145 146 143 141 133 118 116 120 116 92 94 105 82 59 105 116 127 138 139 102 84 73 62 63 54 48 48 57 65 68 63 56 57 27
164 164 161 140 129 129 140 127 110 138 147 140 106 102 132 140 142 145 150 144 147 153 146 155 152 161 146 142 126 129 134 134 134 122 117 91 85 81 81 56 104 88 61 84 138 159 138 111 89 80 72 62 63 51 46 54 56 53 48 86 120 134
161 163 153 140 126 131 124 140 150 125 117 142 129 130 114 131 128 135 138 135 139 138 144 157 154 149 141 133 138 138 140 138 143 129 128 130 131 133 138 117 121 114 91 67 61 56 106 107 87 75 72 64 59 63 58 52 55 50 51 38 73 174
156 162 163 164 153 151 154 151 133 158 173 165 143 112 102 105 115 137 143 137 136 144 148 144 137 136 139 138 126 130 137 140 148 143 150 169 170 173 151 138 132 121 111 92 58 52 62 104 108 78 67 73 62 54 64 59 52 48 47 60 356 66
148 160 172 170 151 150 161 166 143 163 143 121 116 120 107 131 152 140 138 138 133 137 136 136 136 136 134 131 131 138 148 158 151 139 147 154 147 135 124 134 138 84 59 121 138 186 194 74 28 124 128 93 62 56 64 62 53 49 53 65 68 48
155 158 161 150 138 148 139 149 142 142 127 100 74 124 128 141 144 155 126 113 121 125 126 122 131 137 141 148 148 150 161 157 154 147 132 143 139 133 145 152 153 140 112 73 121 232 223 175 144 87 71 93 90 83 24 47 45 42 52 65 46 42
160 142 140 145 143 125 131 118 104 127 112 121 154 108 81 96 105 100 103 108 113 133 131 127 135 146 144 152 155 154 154 162 169 169 155 150 151 148 138 136 131 140 143 114 111 293 233 196 146 136 81 77 177 102 81 63 63 29 33 60 53 43
162 140 136 143 137 133 116 93 93 81 92 76 66 89 100 69 107 132 104 114 148 135 131 134 148 148 146 145 135 141 150 159 165 166 149 142 153 166 160 149 142 141 160 150 174 151 314 133 210 185 140 104 62 43 197 131 106 30 11 55 43 43
149 127 139 144 138 134 137 132 128 129 132 121 126 131 143 155 150 139 159 163 104 129 125 119 139 135 134 133 133 142 143 146 162 161 146 139 135 121 131 149 166 152 144 211 150 125 146 3 128 148 175 148 161 171 149 173 97 120 43 56 62 65
155 137 126 129 116 116 122 143 151 151 146 148 144 169 140 143 135 141 121 115 124 106 130 133 131 162 130 134 129 129 128 132 134 143 131 124 142 164 164 174 149 149 174 151 136 130 160 191 62 48 32 341 175 119 144 133 125 132 107 43 48 56
141 136 127 123 112 134 145 150 137 134 141 142 148 154 148 126 105 125 101 104 106 88 68 79 99 68 115 141 127 121 131 140 133 140 143 152 169 158 126 119 158 164 156 170 164 154 181 181 150 205 34 72 79 88 86 99 128 142 115 122 103 71
142 146 140 133 131 152 151 149 141 136 130 139 136 136 120 103 108 106 98 81 95 94 83 68 73 86 82 121 135 137 130 118 99 92 108 113 109 129 140 143 141 146 156 168 170 167 146 191 147 172 113 61 71 65 73 71 92 75 124 131 112 106
147 144 139 135 144 155 150 140 139 144 139 131 117 105 110 111 111 110 105 98 101 97 95 66 46 40 58 66 112 116 109 101 95 79 78 97 100 94 106 126 154 152 154 131 140 152 169 170 191 130 113 147 114 94 68 65 64 103 65 37 126 127
149 135 140 155 147 152 150 163 149 149 143 138 143 136 118 104 109 106 115 127 123 104 84 86 65 41 52 73 91 101 104 92 76 74 89 93 107 118 129 128 128 122 133 139 144 131 104 119 128 118 121 144 154 158 162 164 169 160 137 130 118 105
152 147 150 153 145 147 159 171 151 148 147 148 148 145 142 145 149 132 130 122 106 87 75 72 67 63 43 68 95 91 86 81 80 83 86 96 99 106 110 105 98 105 105 107 119 116 122 118 110 99 124 140 143 137 131 146 168 143 138 142 133 132
159 148 144 145 144 148 155 156 154 149 147 146 146 145 142 143 155 134 133 123 115 113 113 89 83 89 56 77 110 110 105 107 100 92 102 93 89 95 102 96 105 96 106 118 133 127 123 149 155 158 173 152 146 129 135 149 126 118 105 126 134 130
156 147 139 145 140 142 149 151 154 144 143 144 144 142 145 143 155 141 141 139 139 144 140 143 141 128 143 91 82 97 106 98 99 103 96 91 87 90 96 101 105 103 102 121 115 114 122 127 114 133 141 122 133 122 136 139 127 126 134 137 140 133
151 148 147 146 133 137 133 132 132 134 134 134 135 132 140 145 147 140 141 131 136 138 136 158 144 161 127 102 103 102 112 115 119 115 108 92 75 70 73 77 76 93 87 104 105 108 109 121 121 129 128 139 121 113 136 141 131 133 141 147 144 149
155 149 145 139 138 136 131 130 129 132 132 128 124 118 116 131 145 144 152 143 151 150 145 141 145 128 128 116 119 116 112 121 128 128 117 117 106 91 78 86 73 83 85 63 100 91 102 96 97 105 113 108 104 132 146 140 133 138 141 144 141 149
140 135 139 142 139 128 124 123 126 127 128 122 126 132 140 149 151 154 147 150 146 156 142 139 148 139 125 104 114 126 126 131 137 133 115 109 102 84 74 89 102 100 97 72 88 97 104 96 102 103 92 112 131 132 145 136 131 133 136 129 136 143